Tracking 33165 objects as of 8-Feb-2026
HD Live streaming from Space Station
objects crossing your sky now

STARLINK-35913

Track STARLINK-35913 now!
10-day predictions


NORAD ID: 67004
Int'l Code: 2025-293B
Perigee: 576.9 km
Apogee: 581.4 km
Inclination: 70.0 °
Period: 96.1 minutes
Semi major axis: 6950 km
RCS: Unknown
Launch date: December 10, 2025
Source: United States (US)
Launch site: AIR FORCE WESTERN TEST RANGE (AFWTR)
Your satellite tracking list
Your tracking list is empty




NASA's NSSDC Master Catalog

Two Line Element Set (TLE):
1 67004U 25293B   26038.35254487  .00011768  00000-0  99201-3 0  9992
2 67004  70.0019 170.9469 0003170 269.0777  91.0019 14.98343984 10342
Source of the keplerian elements: AFSPC